Lid_Strength_Index
10 10 10 9 10 10 9 9 11 11 12 10 10 9 8 7 6 6 6 5 5 5 4 3 3 2 2 2 1 1 1 1 1 1 0 -0 -0 -0 -0 -0 -0 -1 -0 -0
10 9 10 10 10 9 10 10 10 10 11 7 7 7 8 7 7 7 6 5 5 5 4 4 3 2 2 2 1 1 1 2 1 1 0 0 -0 -0 -0 -0 -0 -0 -0 -0
12 10 10 11 10 11 11 10 10 12 10 8 9 8 8 7 6 6 6 5 5 5 6 5 4 2 3 3 2 3 2 2 1 2 2 1 0 0 0 0 -0 0 -0 -0
12 11 15 9 8 8 10 10 9 9 9 8 8 7 6 5 6 6 5 5 6 6 7 7 6 6 6 6 6 6 5 4 3 3 3 2 2 3 2 1 0 0 0 -0
12 13 11 9 9 9 9 10 9 9 8 8 7 7 7 5 4 4 4 6 7 7 7 7 7 7 7 7 6 6 7 6 5 4 4 3 4 3 3 3 2 0 0 1
11 14 16 11 7 6 7 11 8 7 8 8 7 11 9 6 5 5 5 6 7 8 8 8 8 8 8 8 8 8 8 7 6 5 4 4 3 2 2 2 3 5 4 5
12 13 11 7 6 6 12 11 7 7 7 7 8 6 6 6 6 5 6 7 7 8 8 8 8 7 8 8 8 8 8 8 8 6 6 6 5 4 4 4 5 5 6 6
11 12 13 6 7 10 7 6 6 6 6 6 5 5 6 7 6 5 5 6 7 7 6 6 6 6 6 6 5 5 4 4 4 4 5 5 5 5 4 4 5 5 5 6
10 10 7 5 6 5 5 6 6 6 5 5 5 5 6 6 5 4 5 5 5 6 6 6 6 5 6 6 6 5 5 5 5 4 4 4 4 4 4 3 4 4 3 4
10 8 7 5 5 4 4 5 5 4 5 5 5 5 5 6 6 5 5 6 5 6 7 7 7 6 7 6 6 6 7 7 6 6 6 5 5 5 6 5 5 6 6 7
9 7 6 5 5 4 4 4 4 4 4 5 4 5 6 7 7 8 7 6 6 6 7 7 6 6 6 6 5 7 8 8 8 7 7 7 7 7 7 8 8 7 7 7
9 7 6 6 4 4 4 5 4 4 4 4 4 5 6 7 7 7 8 7 7 6 6 6 6 7 6 6 6 7 8 9 9 8 8 8 8 8 10 10 11 11 11 10
7 5 5 4 4 4 4 4 4 3 3 4 4 5 6 7 6 6 7 7 7 7 6 6 6 7 6 6 6 7 8 9 9 9 8 8 8 8 9 10 11 11 12 12
4 4 6 4 5 4 4 3 4 3 3 3 3 3 4 5 6 6 7 6 6 6 7 7 7 8 7 7 7 7 8 10 9 9 9 9 9 9 9 9 10 10 11 12
4 4 4 3 3 3 3 3 3 4 3 3 2 3 3 4 5 6 5 5 6 6 6 6 6 6 7 7 7 7 8 8 8 8 8 8 8 8 8 9 9 9 9 10
4 4 4 4 4 4 3 4 4 4 3 3 3 3 3 2 2 3 3 3 4 5 5 5 5 4 5 6 6 6 7 7 7 7 7 7 7 7 8 8 8 8 9 9
5 6 5 5 4 4 4 3 3 3 3 3 3 2 2 2 2 2 2 2 2 2 2 3 3 3 4 4 5 5 6 6 7 6 6 6 6 7 7 7 7 7 7 9
3 3 3 3 4 4 4 3 3 3 3 3 2 3 3 3 3 2 2 2 2 2 2 2 2 2 2 3 4 4 5 5 6 6 6 6 6 6 6 6 6 6 7 8
3 3 3 3 3 3 3 3 3 2 2 2 2 2 2 2 2 2 2 3 3 3 2 2 3 3 3 3 4 4 5 5 5 5 5 5 6 5 5 5 5 4 5 5
3 3 3 3 2 2 3 2 2 2 2 2 2 2 2 2 2 3 2 2 2 2 2 3 3 2 2 2 3 4 4 5 5 5 6 5 5 5 5 7 5 5 5 5
3 3 3 3 3 2 2 2 2 2 2 2 2 2 2 2 1 1 2 3 1 2 3 2 3 3 2 2 2 3 3 4 4 4 5 5 5 5 5 5 5 5 5 5
3 3 3 2 3 3 2 2 2 2 2 2 2 2 2 2 2 1 1 2 1 1 0 0 0 0 2 1 3 2 3 3 3 3 3 3 4 4 4 4 4 4 4 4
3 3 2 3 3 3 2 2 2 2 2 2 2 2 2 2 1 2 3 1 0 1 0 0 0 0 0 1 1 2 2 3 2 3 2 2 2 2 3 3 3 3 3 3
3 3 3 2 2 2 3 2 2 2 1 1 1 1 1 2 1 0 0 1 2 2 0 0 0 0 0 -0 0 0 2 3 3 2 2 4 2 2 2 2 2 2 2 3
2 3 2 3 3 3 2 2 3 3 2 1 1 1 1 0 1 0 0 0 2 2 0 0 1 1 -0 -0 0 1 0 2 4 3 2 1 1 2 2 1 1 1 2 2
3 3 3 2 2 3 3 3 3 3 3 2 1 1 1 0 0 1 -0 1 0 1 0 0 0 0 -0 0 1 1 0 2 3 3 2 2 1 1 1 1 1 1 1 1
3 5 3 3 3 3 3 3 4 4 3 2 2 1 1 0 -0 0 1 0 0 0 0 0 -0 0 0 0 1 1 1 2 2 2 2 2 1 0 0 0 0 0 0 0